KB7YYZ Weather Reports


time (UTC)temp
C
wind
direction
speed
KPH
gust
KPH
rain 1hr
cm
rain 24hr
cm
rain mn
cm
humidity
%
barometer
mb
20260831222521 26 0.0 0.0 0.00 0.48 0.48 51 1009.6
20260831221537 26 0.0 0.0 0.00 0.48 0.48 51 1009.8
20260831220544 26 130 0.0 0.0 0.00 0.48 0.48 50 1010.1
20260831215532 25 335 0.0 1.6 0.00 0.48 0.48 49 1010.4
20260831214538 25 0.0 0.0 0.00 0.48 0.48 49 1010.7
20260831213527 25 0.0 0.0 0.00 0.48 0.48 49 1010.9
20260831212538 25 0.0 0.0 0.00 0.48 0.48 48 1011.2
20260831211521 24 273 0.0 0.0 0.00 0.48 0.48 48 1011.4
20260831210527 24 318 0.0 0.0 0.00 0.48 0.48 49 1011.7
20260831205532 23 9 0.0 1.6 0.00 0.48 0.48 48 1011.9
20260831204524 23 190 0.0 0.0 0.00 0.48 0.48 50 1011.9
20260831203542 23 240 0.0 0.0 0.00 0.48 0.48 50 1012.6
20260831202541 23 10 1.6 1.6 0.00 0.48 0.48 51 1012.7
20260831201525 23 187 0.0 1.6 0.00 0.48 0.48 51 1013.3
20260831200530 23 83 1.6 1.6 0.00 0.48 0.48 51 1013.3
20260831195521 23 180 1.6 1.6 0.00 0.48 0.48 52 1013.7
20260831194532 23 177 1.6 1.6 0.00 0.48 0.48 54 1014.1
20260831193529 24 159 1.6 1.6 0.00 0.48 0.48 54 1014.0
20260831192521 25 77 1.6 1.6 0.00 0.48 0.48 54 1013.8
20260831191548 25 36 1.6 1.6 0.00 0.48 0.48 53 1013.9
20260831190523 25 30 3.2 3.2 0.00 0.48 0.48 54 1013.9
20260831185521 25 2 3.2 3.2 0.00 0.48 0.48 53 1014.3
20260831184519 25 36 1.6 1.6 0.00 0.48 0.48 54 1014.3
20260831183603 25 24 0.0 1.6 0.00 0.48 0.48 54 1014.3
20260831182524 25 294 0.0 0.0 0.00 0.48 0.48 54 1014.7
20260831181534 25 298 1.6 1.6 0.00 0.48 0.48 54 1014.6
20260831180529 25 41 3.2 3.2 0.00 0.48 0.48 55 1014.4
20260831175557 26 327 4.8 4.8 0.00 0.48 0.48 54 1014.2
20260831174520 25 302 3.2 3.2 0.00 0.48 0.48 54 1014.6
20260831173521 25 272 3.2 3.2 0.00 0.48 0.48 54 1014.4
20260831172527 25 275 1.6 3.2 0.00 0.48 0.48 55 1014.2
20260831171526 26 330 3.2 3.2 0.00 0.48 0.48 55 1014.1
20260831170543 26 275 4.8 4.8 0.00 0.48 0.48 55 1013.9
20260831165536 26 270 4.8 4.8 0.00 0.48 0.48 55 1013.4
20260831164532 27 281 4.8 4.8 0.00 0.48 0.48 54 1013.3
20260831163524 27 319 3.2 3.2 0.00 0.48 0.48 54 1012.9
20260831162522 27 320 1.6 1.6 0.00 0.48 0.48 54 1012.5
20260831161534 27 333 0.0 0.0 0.00 0.48 0.48 55 1012.3
20260831160530 28 331 0.0 1.6 0.00 0.48 0.48 54 1012.2
20260831155529 27 326 0.0 1.6 0.00 0.48 0.48 54 1012.0
20260831154602 27 13 0.0 0.0 0.00 0.48 0.48 54 1011.8
20260831153520 27 30 0.0 1.6 0.00 0.48 0.48 54 1011.7
20260831152523 26 0.0 0.0 0.00 0.48 0.48 54 1011.7
20260831151520 26 0.0 0.0 0.00 0.48 0.48 54 1011.5
20260831150545 26 240 0.0 0.0 0.08 0.48 0.48 54 1011.5
20260831145556 26 223 0.0 1.6 0.08 0.48 0.48 54 1011.2
20260831144545 26 0.0 0.0 0.08 0.48 0.48 54 1010.8
20260831143536 26 314 0.0 0.0 0.08 0.48 0.48 55 1010.7
20260831142536 26 145 1.6 1.6 0.08 0.48 0.48 55 1010.5
20260831141522 26 43 3.2 4.8 0.08 0.48 0.48 55 1010.4
20260831140558 26 55 3.2 3.2 0.00 0.43 0.43 54 1010.4
20260831135522 26 19 4.8 4.8 0.00 0.43 0.43 54 1010.4
20260831134528 25 51 4.8 4.8 0.00 0.43 0.43 54 1010.5
20260831133520 25 39 4.8 4.8 0.00 0.43 0.43 54 1010.6
20260831132535 25 47 6.4 6.4 0.00 0.43 0.43 54 1010.8
20260831131535 25 22 4.8 6.4 0.08 0.43 0.43 55 1011.0
20260831130539 25 58 4.8 4.8 0.15 0.43 0.43 55
20260831125544 25 66 3.2 3.2 0.15 0.43 0.43 55
20260831124530 26 6 1.6 3.2 0.28 0.43 0.43 55 1011.8
20260831123532 25 51 3.2 3.2 0.43 0.43 0.43 55 1011.4
20260831122551 26 7 4.8 4.8 0.43 0.43 0.43 56 1011.4
20260831121528 26 355 3.2 4.8 0.36 0.36 0.36 56 1011.6
20260831120542 27 302 4.8 4.8 0.28 0.28 0.28 56 1011.8
20260831115524 27 287 3.2 3.2 0.28 0.28 0.28 56 1011.2
20260831114542 28 286 3.2 3.2 0.15 0.15 0.15 55 1010.9
20260831113520 29 231 6.4 6.4 0.00 0.00 0.00 51 1010.7
20260831112535 30 239 6.4 259.1 0.00 0.00 0.00 48 1010.0
20260831111534 30 283 4.8 4.8 0.00 0.00 0.00 46 1009.6
20260831110546 31 18 1.6 1.6 0.00 0.00 0.00 44 1008.7
20260831105532 31 26 1.6 1.6 0.00 0.00 0.00 44 1008.2
20260831104524 31 35 1.6 1.6 0.00 0.00 0.00 44 1007.9
20260831103543 31 49 1.6 1.6 0.00 0.00 0.00 45 1007.9
20260831102534 31 32 0.0 1.6 0.00 0.00 0.00 46 1007.8
20260831101522 31 0.0 0.0 0.00 0.00 0.00 46 1007.6
20260831100527 31 0.0 0.0 0.00 0.00 0.00 46 1007.6
20260831095521 31 0.0 0.0 0.00 0.00 0.00 46 1007.6
20260831094537 31 0.0 0.0 0.00 0.00 0.00 46 1007.6
20260831093535 31 0.0 0.0 0.00 0.00 0.00 46 1007.4
20260831092519 31 0.0 0.0 0.00 0.00 0.00 45 1007.6
20260831091526 31 0.0 0.0 0.00 0.00 0.00 45 1007.6
20260831090533 31 0.0 0.0 0.00 0.00 0.00 45 1007.7
20260831085534 31 0.0 0.0 0.00 0.00 0.00 44 1007.7
20260831084529 31 0.0 0.0 0.00 0.00 0.00 44 1007.7
20260831083523 31 0.0 0.0 0.00 0.00 0.00 43 1007.7
20260831082524 31 0.0 0.0 0.00 0.00 0.00 44 1007.7
20260831081523 31 0.0 0.0 0.00 0.00 0.00 43 1007.7
20260831080542 32 0.0 0.0 0.00 0.00 0.00 43 1007.7
20260831075519 32 0.0 0.0 0.00 0.00 0.00 42 1007.8
20260831074520 32 0.0 0.0 0.00 0.00 0.00 42 1007.9
20260831073520 32 0.0 0.0 0.00 0.00 0.00 42 1008.0
20260831072525 32 0.0 0.0 0.00 0.00 0.00 42 1007.9
20260831071526 32 0.0 0.0 0.00 0.00 0.00 41 1007.9
20260831070533 32 0.0 0.0 0.00 0.00 0.00 41 1008.0
20260831065554 32 0.0 0.0 0.00 0.00 0.00 41 1008.1
20260831064613 32 315 0.0 0.0 0.00 0.00 0.00 40 1008.2
20260831063523 33 252 0.0 1.6 0.00 0.00 0.00 40 1008.2
20260831062523 33 240 1.6 1.6 0.00 0.00 0.00 40 1008.1
20260831061534 33 214 0.0 1.6 0.00 0.00 0.00 40 1008.1
20260831060533 33 225 0.0 0.0 0.00 0.00 0.00 39 1008.0
20260831055529 33 0.0 0.0 0.00 0.00 0.00 39 1008.0
20260831054539 33 0.0 0.0 0.00 0.00 0.00 38 1008.0
20260831053540 33 325 1.6 1.6 0.00 0.00 0.00 38 1008.0
20260831052556 33 6 1.6 1.6 0.00 0.00 0.00 37 1007.9
20260831051532 33 354 1.6 1.6 0.00 0.00 0.00 36 1007.7
20260831050528 33 338 0.0 1.6 0.00 0.00 0.00 36 1007.6
20260831045526 33 359 0.0 1.6 0.00 0.00 0.00 36 1007.8
20260831044524 33 18 1.6 1.6 0.00 0.00 0.00 35 1007.8
20260831043523 34 319 1.6 1.6 0.00 0.00 0.00 35 1007.8
20260831042520 34 324 1.6 1.6 0.00 0.00 0.00 35 1007.8
20260831041523 34 345 0.0 0.0 0.00 0.00 0.00 34 1007.7
20260831040531 34 0.0 0.0 0.00 0.00 0.00 34 1007.7
20260831035520 35 356 0.0 0.0 0.00 0.00 0.00 33 1007.6
20260831034528 35 0 0.0 0.0 0.00 0.00 0.00 33 1007.5
20260831033532 35 320 1.6 1.6 0.00 0.00 0.00 33 1007.3
20260831032522 35 293 1.6 1.6 0.00 0.00 0.00 33 1007.0
20260831031534 35 265 3.2 3.2 0.00 0.00 0.00 32 1006.9
20260831030532 36 276 3.2 3.2 0.00 0.00 0.00 33 1006.7
20260831025525 36 267 1.6 3.2 0.00 0.00 0.00 32 1006.5
20260831024532 36 279 3.2 3.2 0.00 0.00 0.00 32 1006.3
20260831023555 36 303 3.2 3.2 0.00 0.00 0.00 32 1005.9
20260831022552 37 271 1.6 3.2 0.00 0.00 0.00 32 1005.5
20260831021531 37 259 1.6 1.6 0.00 0.00 0.00 31 1005.2
20260831020521 37 268 0.0 0.0 0.00 0.00 0.00 31 1005.1
20260831015526 37 306 0.0 0.0 0.00 0.00 0.00 30 1005.1
20260831014553 37 278 1.6 1.6 0.00 0.00 0.00 30 1005.0
20260831013533 37 283 1.6 1.6 0.00 0.00 0.00 29 1004.9
20260831012527 37 285 1.6 1.6 0.00 0.00 0.00 29 1004.9
20260831011546 38 299 1.6 1.6 0.00 0.00 0.00 29 1004.8
20260831010533 38 300 1.6 1.6 0.00 0.00 0.00 28
20260831005521 38 299 1.6 1.6 0.00 0.00 0.00 27
20260831004519 38 302 1.6 1.6 0.00 0.00 0.00 26
20260831003531 38 274 1.6 1.6 0.00 0.00 0.00 26 1004.8
20260831002524 39 268 1.6 1.6 0.00 0.00 0.00 26 1004.9
20260831001520 39 284 1.6 1.6 0.00 0.00 0.00 26 1004.8
20260831000526 39 324 1.6 1.6 0.00 0.00 0.00 26 1004.8
20260830235521 40 230 1.6 1.6 0.00 0.00 0.00 26 1004.8
20260830234531 40 285 1.6 3.2 0.00 0.00 0.00 26 1004.8
20260830233530 40 271 3.2 3.2 0.00 0.00 0.00 26 1004.9
20260830232528 40 249 3.2 3.2 0.00 0.00 0.00 27 1005.0
20260830231523 40 323 1.6 1.6 0.00 0.00 0.00 27 1005.1
20260830230531 40 327 1.6 1.6 0.00 0.00 0.00 26 1005.3
20260830225556 40 327 3.2 3.2 0.00 0.00 0.00 27 1005.5
20260830224530 40 319 1.6 1.6 0.00 0.00 0.00 27 1005.6
20260830223524 40 316 3.2 3.2 0.00 0.00 0.00 27 1005.9